Regional Weather Roundup
Issued by NWS Kansas City/Pleasant Hill, MO

Home | Current Version | Previous Version | Text Only | Print | Product List | Glossary On
Versions: 1 2 3 4 5 6 7 8 9 10 11 12 13 14 15 16 17 18 19 20 21 22 23 24 25 26 27 28 29 30 31 32 33 34 35 36 37 38 39 40 41 42 43 44 45 46 47 48 49 50
000
ASUS43 KEAX 020710
RWREAX

WEATHER ROUNDUP FOR EASTERN KANSAS AND NORTHWEST MISSOURI
NATIONAL WEATHER SERVICE KANSAS CITY/PLEASANT HILL MO
200 AM CDT SUN AUG 02 2015

KSZ040-057-103>105-MOZ028-029-037-043-020800-
...KANSAS CITY METROPOLITAN AREA...

CITY           SKY/WX    TMP DP  RH WIND       PRES   REMARKS
K.C. INTL      PTCLDY    69  63  81 S9        29.95F
K.C. DOWNTOWN  PTCLDY    75  64  68 S7        29.94F
LEES SUMMIT    PTCLDY    74  64  71 S8        29.96F
OLATHE - IXD   PTCLDY    70  65  84 S7        29.97F
OLATHE - OJC   PTCLDY    70  64  81 S6        29.96F
LAWRENCE       CLEAR     69  66  90 E3        29.96F

$$

MOZ001>008-011>017-020>025-030>033-038>040-044>046-053-054-020800-
...NORTHERN AND CENTRAL MISSOURI...

CITY           SKY/WX    TMP DP  RH WIND       PRES   REMARKS
ST. JOSEPH     CLEAR     70  64  81 S5        29.93F
MOSBY            N/A     70  63  78 CALM      29.96F
WARRENSBURG    PTCLDY    68  64  88 SE3       29.96F
WHITEMAN AFB   PTCLDY    67  65  93 SW7       29.96F
CLINTON        PTCLDY    68  66  94 CALM      29.97F
SEDALIA        PTCLDY    68  63  84 S7        29.97F
WARSAW         NOT AVBL
CHILLICOTHE      N/A     70  62  76 CALM      29.94F
KIRKSVILLE     PTCLDY    67  62  84 S8        29.96R

$$

MOZ041-047>049-056>058-063>065-088>090-097-020800-
...EASTERN AND SOUTHERN MISSOURI...

CITY           SKY/WX    TMP DP  RH WIND       PRES   REMARKS
ST. LOUIS INTL PTCLDY    80  71  74 S5        29.97F
SPIRIT OF STL  MOCLDY    72  70  93 CALM      29.95F
COLUMBIA       PTCLDY    68  66  93 E5        29.97S
JEFFERSON CITY MOCLDY    69  66  90 E3        29.96F
ROLLA          PTCLDY    70  69  97 S6        29.98F
OSAGE BEACH    PTCLDY    70  64  83 CALM      29.98F
SPRINGFIELD    CLEAR     72  66  81 S5        30.00F
BRANSON        CLEAR     73  64  73 CALM      30.02F
JOPLIN         CLEAR     72  67  84 S3        29.99F
WEST PLAINS    CLEAR     70  66  87 CALM      30.03F

$$

IAZ060-094-KSZ022-034>040-054-083-096-NEZ052-066-093-020800-
...KANSAS...SOUTHEAST NEBRASKA AND IOWA...

CITY           SKY/WX    TMP DP  RH WIND       PRES   REMARKS
TOPEKA         CLEAR     74  69  85 SE7       29.95F
MANHATTAN      PTCLDY    75  71  87 SW6       29.93F
EMPORIA        MOCLDY    73  68  84 S8        29.96F
CHANUTE        PTCLDY    70  66  87 S6        29.98F
WICHITA        PTCLDY    75  69  81 S8        29.96F
OMAHA          PTCLDY    75  71  87 S13       29.89F
LINCOLN        CLEAR     73  70  90 S8        29.89F
FALLS CITY     CLEAR     72  64  76 S8        29.92F
DES MOINES     PTCLDY    74  65  73 SW9       29.89F

$$




USA.gov is the U.S. government's official web portal to all federal, state and local government web resources and services.